Location: Hillern
(53.0557°N, 9.8577°E)
Time: 01:59:02
(UTC+00:00)

Cosmos 2333 Rocket - Pass Details

Date: 19 May 2025
Orbit: 840 x 862 km, 70.8° (Epoch: 23 June)

Event Time Altitude Azimuth Distance (km) Brightness Sun altitude
Rises 22:03:17 0° 328° (NNW) 3,444 7.0 -15.2°
Reaches altitude 10° 22:05:49 10° 332° (NNW) 2,501 6.0 -15.4°
Maximum altitude 22:11:29 57° 51° (NE) 1,000 2.7 -15.6°
Enters shadow 22:15:53 17° 127° (SE) 2,042 3.7 -15.8°
